Hourly Data Report for August 25, 2000

SHERBROOKE A
QUEBEC

45°26'00.000" N
71°41'00.000" W
241.40 m
7028124
71610
YSC

Download Data

Hourly Data (August 2000)
Hourly Data Report for August 25, 2000
TIME
LST
Temp Definition
°C
Dew Point Definition
°C
Rel Hum Definition
%
Precip. Amount Definition
mm

Wind Dir Definition
10's deg

Wind Spd Definition
km/h
Visibility Definition
km
Stn Press Definition
kPa
Hmdx Definition


Wind Chill Definition


Weather Definition


00:00 13.7 12.8 94   21 7 15.0 98.72      
01:00 11.6 11.3 98   21 6 15.0 98.72      
02:00 11.8 11.3 97   23 6 15.0 98.72      
03:00 10.3 10.3 100   23 4 6.4 98.72      
04:00 9.3 9.1 99     0 1.1 98.72      
05:00 9.5 9.5 100   11 4 5.6 98.75      
06:00 11.4 11.3 99     0 11.3 98.79      
07:00 14.2 13.2 94     0 24.1 98.79     Mainly Clear
08:00 16.7 14.5 87   24 6 24.1 98.79     Mainly Clear
09:00 18.8 15.0 79   23 9 24.1 98.79     Mainly Clear
10:00 21.7 15.1 66   21 11 24.1 98.72 26   Mainly Clear
11:00 23.7 14.0 55   25 19 24.1 98.69 27   Mainly Clear
12:00 23.7 12.8 50   28 22 24.1 98.65 26   Mainly Clear
13:00 24.7 13.5 50   28 26 24.1 98.62 28   Mainly Clear
14:00 25.2 14.0 50   25 19 24.1 98.59 29   Mainly Clear
15:00 24.6 13.9 51   27 28 24.1 98.59 28   Mainly Clear
16:00 23.4 13.3 53   26 19 24.1 98.55 26   Mainly Clear
17:00 23.3 13.7 55   26 15 15.0 98.52 26    
18:00 22.0 13.8 60   23 7 15.0 98.55 25    
19:00 19.2 13.5 70   21 7 15.0 98.55      
20:00 18.5 13.4 72   20 7 15.0 98.59      
21:00 18.1 13.4 74   23 6 15.0 98.59      
22:00 17.2 13.3 78   20 9 15.0 98.59      
23:00 16.8 13.1 79   21 6 15.0 98.59      

Notes on Data Quality.

Legend

  • E = Estimated
  • M = Missing
  • NA = Not Available*
  • [empty] = Indicates an unobserved value
Date modified: